Location: Oberwangen
(47.4286°N, 8.9679°E)
Time: 08:23:35
(UTC+00:00)

Cosmos 1331 Rocket - Pass Details

Date: 20 June 2021
Orbit: 749 x 778 km, 74.0° (Epoch: 04 August)

Event Time Altitude Azimuth Distance (km) Brightness Sun altitude
Rises 20:29:06 0° 198° (SSW) 3,215 6.9 -8.7°
Reaches altitude 10° 20:31:27 10° 198° (SSW) 2,298 6.2 -9.0°
Maximum altitude 20:36:41 85° 111° (ESE) 780 4.0 -9.6°
Drops below altitude 10° 20:41:59 10° 23° (NNE) 2,332 6.9 -10.1°
Sets 20:44:23 0° 23° (NNE) 3,266 7.7 -10.4°
